Location: Willingham
(52.3167°N, 0.0667°E)
Time: 23:45:27
(UTC+00:00)

Cosmos-2242 - Pass Details

Date: 19 May 2025
Orbit: 569 x 594 km, 82.5° (Epoch: 18 June)

Event Time Altitude Azimuth Distance (km) Brightness Sun altitude
Exits shadow 21:27:32 - 198° (SSW) 2,736 6.0 -10.8°
Reaches altitude 10° 21:29:32 10° 202° (SSW) 1,929 5.3 -11.0°
Maximum altitude 21:33:46 63° 283° (WNW) 671 3.4 -11.3°
Drops below altitude 10° 21:38:01 10° 5° (N) 1,939 6.4 -11.7°
Sets 21:40:15 0° 9° (N) 2,842 7.3 -11.9°
